DK8PN Weather Reports


time (UTC)temp
C
wind
direction
speed
KPH
gust
KPH
rain 1hr
cm
rain 24hr
cm
rain mn
cm
humidity
%
barometer
mb
20260906151550 25 95 1.6 11.3 0.00 0.00 0.00 38 1021.6
20260906150053 25 53 4.8 12.9 0.00 0.00 0.00 39 1021.7
20260906144553 25 84 1.6 9.7 0.00 0.00 0.00 39 1022.0
20260906143038 25 95 6.4 14.5 0.00 0.00 0.00 39 1022.1
20260906141543 25 102 0.0 4.8 0.00 0.00 0.00 41 1022.2
20260906140036 25 78 0.0 9.7 0.00 0.00 0.00 40 1022.2
20260906134530 25 110 1.6 11.3 0.00 0.00 0.00 39 1022.5
20260906133028 25 26 1.6 9.7 0.00 0.00 0.00 40 1022.7
20260906131529 25 33 0.0 9.7 0.00 0.00 0.00 40 1022.9
20260906130035 25 37 0.0 9.7 0.00 0.00 0.00 40 1023.1
20260906124523 24 310 0.0 22.5 0.00 0.00 0.00 41 1023.3
20260906123022 24 107 1.6 9.7 0.00 0.00 0.00 40 1023.4
20260906121520 23 67 0.0 12.9 0.00 0.00 0.00 41 1023.5
20260906120018 24 182 0.0 9.7 0.00 0.00 0.00 43 1023.6
20260906114531 23 53 0.0 9.7 0.00 0.00 0.00 45 1023.7
20260906113015 23 19 0.0 4.8 0.00 0.00 0.00 44 1023.9
20260906111514 22 55 1.6 9.7 0.00 0.00 0.00 47 1024.1
20260906110016 22 32 3.2 12.9 0.00 0.00 0.00 48 1024.1
20260906104516 22 97 0.0 4.8 0.00 0.00 0.00 48 1024.1
20260906103009 22 139 0.0 6.4 0.00 0.00 0.00 50 1024.3
20260906101505 21 142 0.0 4.8 0.00 0.00 0.00 53 1024.5
20260906100002 22 97 0.0 6.4 0.00 0.00 0.00 52 1024.7
20260906094640 21 174 0.0 4.8 0.00 0.00 0.00 52 1025.0
20260906093104 20 125 1.6 9.7 0.00 0.00 0.00 55 1025.1
20260906091551 20 95 1.6 4.8 0.00 0.00 0.00 54 1025.2
20260906090046 20 71 1.6 9.7 0.00 0.00 0.00 54 1025.2
20260906084543 19 96 0.0 9.7 0.00 0.00 0.00 61 1025.2
20260906083040 19 290 0.0 0.0 0.00 0.00 0.00 63 1025.2
20260906081547 18 290 0.0 0.0 0.00 0.00 0.00 64 1025.4
20260906080041 18 290 0.0 0.0 0.00 0.00 0.00 68 1025.5
20260906074533 16 290 0.0 0.0 0.00 0.00 0.00 75 1025.5
20260906073027 16 290 0.0 0.0 0.00 0.00 0.00 75 1025.6
20260906071523 14 290 0.0 0.0 0.00 0.00 0.00 80 1025.5
20260906070016 13 290 0.0 0.0 0.00 0.00 0.00 84 1025.5
20260906064513 12 290 0.0 0.0 0.00 0.00 0.00 84 1025.6
20260906063009 11 289 0.0 0.0 0.00 0.00 0.00 89 1025.7
20260906061506 10 290 0.0 0.0 0.00 0.00 0.00 90 1025.6
20260906060001 10 289 0.0 0.0 0.00 0.00 0.00 91 1025.6
20260906054557 10 289 0.0 0.0 0.00 0.00 0.00 92 1025.4
20260906053054 8 289 0.0 0.0 0.00 0.00 0.00 91 1025.2
20260906051550 8 289 0.0 0.0 0.00 0.00 0.00 91 1025.3
20260906050055 8 288 0.0 0.0 0.00 0.00 0.00 91 1025.1
20260906044546 8 288 0.0 0.0 0.00 0.00 0.00 91 1025.0
20260906043048 8 288 0.0 0.0 0.00 0.00 0.00 91 1025.1
20260906041547 8 288 0.0 0.0 0.00 0.00 0.00 91 1025.3
20260906040042 8 288 0.0 0.0 0.00 0.00 0.00 91 1025.0
20260906034548 8 288 0.0 0.0 0.00 0.15 0.00 91 1025.0
20260906033040 8 288 0.0 0.0 0.00 0.15 0.00 91 1025.0
20260906031547 8 288 0.0 0.0 0.00 0.15 0.00 91 1025.1
20260906030034 8 288 0.0 0.0 0.00 0.15 0.00 91 1025.0
20260906024533 9 288 0.0 0.0 0.00 0.61 0.00 91 1024.9
20260906023033 9 288 0.0 0.0 0.00 0.61 0.00 91 1024.9
20260906021532 9 288 0.0 0.0 0.00 0.61 0.00 90 1024.9
20260906020038 9 288 0.0 0.0 0.00 0.61 0.00 90 1024.9
20260906014533 9 288 0.0 0.0 0.00 0.71 0.00 90 1024.8
20260906013028 9 288 0.0 0.0 0.00 0.71 0.00 90 1024.8
20260906011527 9 288 0.0 0.0 0.00 0.71 0.00 90 1024.7
20260906010024 10 288 0.0 0.0 0.00 0.71 0.00 90 1024.8
20260906004522 10 288 0.0 0.0 0.00 0.71 0.00 89 1024.7
20260906003025 10 288 0.0 0.0 0.00 0.71 0.00 89 1024.7
20260906001519 10 288 0.0 0.0 0.00 0.71 0.00 89 1024.6
20260906000018 10 288 0.0 0.0 0.00 0.71 0.00 89 1024.5
20260905234514 10 288 0.0 0.0 0.00 0.71 0.00 89 1024.5
20260905233014 11 288 0.0 0.0 0.00 0.71 0.00 88 1024.4
20260905231512 11 288 0.0 0.0 0.00 0.71 0.00 88 1024.2
20260905230011 11 288 0.0 0.0 0.00 0.71 0.00 88 1024.1
20260905224507 11 288 0.0 0.0 0.00 0.71 0.00 88 1024.1
20260905223020 11 288 0.0 0.0 0.00 0.71 0.00 87 1023.9
20260905221505 12 288 0.0 0.0 0.00 0.71 0.00 86 1023.8
20260905220104 12 288 0.0 0.0 0.00 0.71 0.00 86 1023.7
20260905214556 12 288 0.0 0.0 0.00 0.71 0.71 85 1023.4
20260905213100 12 288 0.0 0.0 0.00 0.71 0.71 86 1023.2
20260905211552 12 288 0.0 0.0 0.00 0.71 0.71 84 1023.0
20260905210105 13 288 0.0 0.0 0.00 0.71 0.71 82 1022.9
20260905204546 13 288 0.0 0.0 0.00 0.71 0.71 81 1022.8
20260905203045 14 288 0.0 0.0 0.00 0.71 0.71 81 1022.7
20260905201543 14 288 0.0 0.0 0.00 0.71 0.71 79 1022.7
20260905200055 15 288 0.0 0.0 0.00 0.71 0.71 74 1022.4
20260905194540 15 288 0.0 0.0 0.00 0.71 0.71 73 1022.2
20260905193038 16 288 0.0 0.0 0.00 0.71 0.71 71 1022.1
20260905191541 16 288 0.0 0.0 0.00 0.71 0.71 71 1021.9
20260905190035 17 288 0.0 0.0 0.00 0.71 0.71 65 1021.8
20260905184535 17 288 0.0 0.0 0.00 0.71 0.71 66 1021.6
20260905183029 18 288 0.0 0.0 0.00 0.71 0.71 60 1021.3
20260905181527 20 288 0.0 0.0 0.00 0.71 0.71 50 1021.1
20260905180024 21 288 0.0 1.6 0.00 0.71 0.71 49 1021.0
20260905174523 21 289 0.0 1.6 0.00 0.71 0.71 46 1020.9
20260905173023 22 271 0.0 12.9 0.00 0.71 0.71 45 1020.6
20260905171536 22 262 3.2 16.1 0.00 0.71 0.71 44 1020.6
20260905170027 23 299 0.0 17.7 0.00 0.71 0.71 45 1020.4
20260905164518 23 310 3.2 16.1 0.00 0.71 0.71 44 1020.4
20260905163019 23 251 3.2 16.1 0.00 0.71 0.71 44 1020.2
20260905161520 23 261 1.6 22.5 0.00 0.71 0.71 42 1020.1
20260905160027 23 314 8.0 20.9 0.00 0.71 0.71 45 1019.9
20260905154525 23 250 8.0 20.9 0.00 0.71 0.71 45 1019.9
20260905153016 23 312 6.4 24.1 0.00 0.71 0.71 45 1020.0